[[{"header":{"parameterUnit":"m.s-1","parameterCategory":1,"la1":30.2991,"la2":30.254,"lo1":-89.0895,"lo2":-89.0444,"dy":0.0017,"dx":0.0017,"nx":28,"ny":28,"refTime":"2023-10-07T09:00:00:Z","depth":0,"parameterNumber":2,"parameterNumberName":"U-component_of_WINDS"},"data":[0,0,0,0,0,0,0,0,0,0,0,0,0,0,0,0,0,0,0,0,0,0,0,0,0,0,0,0,0,0,0,0,0,0,0,0,0,0,0,0,0,0,0,0,0,0,0,0,0,0,0,0,0,0,0,0,0,0,-0.6621,-0.6621,0,-0.6614,-0.6613,-0.6613,-0.6581,-0.658,-0.6579,-0.6579,-0.6572,-0.6572,-0.6573,0,0,0,0,0,0,0,0,0,0,0,0,0,-0.6606,-0.6606,-0.6621,-0.6621,-0.6621,-0.6614,-0.6613,-0.6613,-0.6581,-0.658,-0.6579,-0.6578,-0.6571,-0.6572,-0.6573,0,0,0,0,0,0,0,0,0,0,0,0,0,-0.6607,-0.6606,-0.6621,-0.6604,-0.6602,-0.6614,-0.6613,-0.6613,-0.6581,-0.658,-0.6579,-0.6578,-0.6571,-0.6572,-0.6573,-0.66,0,0,-0.6575,-0.6576,0,0,0,0,0,0,0,0,-0.6607,-0.6607,-0.6606,-0.6605,-0.6603,-0.6597,-0.6605,-0.6609,-0.6582,-0.6589,-0.6579,-0.6577,-0.6581,-0.6581,-0.6582,-0.66,-0.66,-0.6575,-0.6576,-0.6576,-0.6576,0,0,0,0,0,0,0,-0.6607,-0.6608,-0.6618,-0.6606,-0.6604,-0.6596,-0.6595,-0.6606,-0.6592,-0.6588,-0.6586,-0.6586,-0.658,-0.6581,-0.6582,-0.66,-0.6575,-0.6576,-0.6576,-0.6577,-0.6638,-0.6639,0,0,0,0,0,0,-0.6609,-0.6608,-0.6618,-0.6618,-0.6602,-0.6597,-0.6596,-0.66,-0.6591,-0.6589,-0.6587,-0.6584,-0.6581,-0.6581,-0.6581,-0.6612,-0.6576,-0.6577,-0.6577,-0.6637,-0.6638,-0.6639,0,0,0,0,0,0,-0.6609,-0.661,-0.6618,-0.6612,-0.6612,-0.6599,-0.6604,-0.6601,-0.6602,-0.659,-0.6587,-0.6591,-0.658,-0.658,-0.6595,-0.6611,-0.6577,-0.6578,-0.6635,-0.6637,-0.6639,-0.6675,0,0,0,0,0,0,-0.6609,-0.6611,-0.6621,-0.6613,-0.6613,-0.6633,-0.6605,-0.6601,-0.6603,-0.66,-0.6593,-0.6591,-0.6579,-0.6594,-0.6596,-0.6612,-0.6578,-0.6634,-0.6636,-0.6638,-0.6672,-0.6677,-0.6682,0,0,0,0,0,-0.6608,-0.6632,-0.6622,-0.6624,-0.6626,-0.6634,-0.6635,-0.662,-0.6605,-0.6615,-0.6607,-0.6591,-0.6609,-0.6596,-0.6598,-0.6614,-0.6633,-0.6636,-0.6638,-0.667,-0.6676,-0.6682,0,0,0,0,0,0,-0.6644,-0.6631,-0.662,-0.6641,-0.6639,-0.6629,-0.6642,-0.6628,-0.663,-0.6627,-0.6609,-0.6607,-0.6625,-0.6621,-0.6607,-0.6639,-0.6618,-0.6621,-0.6642,-0.6648,-0.6653,-0.6654,-0.6579,0,0,0,0,0,-0.6654,-0.6662,-0.665,-0.6671,-0.667,-0.6656,-0.6659,-0.6648,-0.6645,-0.6644,-0.6637,-0.6635,-0.6639,-0.6643,-0.6647,-0.6671,-0.6668,-0.6682,-0.6687,-0.6692,-0.6695,-0.6705,-0.6711,-0.6648,-0.6648,-0.6648,0,0,-0.6676,-0.667,-0.6676,-0.6678,-0.6675,-0.6683,-0.6656,-0.6666,-0.6671,-0.6645,-0.6659,-0.6654,-0.665,-0.6669,-0.6677,-0.6666,-0.6711,-0.6695,-0.6698,-0.6699,-0.6709,-0.6715,-0.672,-0.665,-0.6649,-0.6649,0,0,-0.672,-0.6716,-0.6732,-0.6729,-0.6725,-0.6715,-0.6718,-0.671,-0.6705,-0.6718,-0.6699,-0.6705,-0.6714,-0.6711,-0.6712,-0.6752,-0.6737,-0.6753,-0.678,-0.6791,-0.6796,-0.68,-0.6814,-0.6819,-0.6756,-0.6756,-0.6756,0,-0.6748,-0.676,-0.6742,-0.6753,-0.6754,-0.673,-0.6745,-0.6743,-0.674,-0.6741,-0.6729,-0.6738,-0.6734,-0.6752,-0.6761,-0.6762,-0.6765,-0.6755,-0.6796,-0.68,-0.6804,-0.6817,-0.6822,-0.6758,-0.6758,-0.6758,-0.6758,0,-0.6793,-0.6802,-0.6815,-0.6812,-0.6814,-0.6827,-0.6811,-0.6815,-0.6803,-0.6795,-0.6808,-0.6801,-0.6803,-0.6806,-0.6795,-0.6821,-0.6814,-0.6799,-0.6778,-0.6812,-0.6824,-0.6829,-0.6761,-0.6761,-0.676,-0.6759,0,0,-0.6862,-0.6847,-0.6852,-0.685,-0.6842,-0.6848,-0.6859,-0.686,-0.6863,-0.6861,-0.687,-0.6877,-0.6863,-0.6862,-0.685,-0.686,-0.6891,-0.6843,-0.6843,-0.6852,-0.6919,-0.693,-0.6936,-0.688,-0.6881,-0.6882,-0.6919,0,-0.6903,-0.6922,-0.6906,-0.6928,-0.6934,-0.691,-0.692,-0.6915,-0.6907,-0.6911,-0.6901,-0.6907,-0.6887,-0.6887,-0.6895,-0.6885,-0.6904,-0.6882,-0.6888,-0.6888,-0.689,-0.6943,-0.6955,-0.6991,-0.6923,-0.6924,-0.6925,0,-0.6955,-0.6954,-0.6976,-0.6965,-0.6967,-0.6976,-0.6975,-0.6979,-0.6973,-0.6966,-0.6965,-0.6949,-0.6959,-0.6937,-0.6949,-0.6935,-0.6936,-0.6931,-0.6932,-0.6933,-0.6909,-0.6944,-0.7002,-0.7007,-0.6932,-0.6931,-0.6931,0,-0.7002,-0.7006,-0.702,-0.7018,-0.7006,-0.7012,-0.7007,-0.7,-0.7001,-0.7,-0.7,-0.7,-0.7,-0.7,-0.6984,-0.697,-0.6998,-0.6975,-0.6992,-0.6993,-0.7,-0.7,-0.7058,-0.7,-0.7,-0.7,-0.7,0,-0.705,-0.7064,-0.704,-0.7049,-0.7064,-0.7044,-0.706,-0.7052,-0.7045,-0.7051,-0.703,-0.7036,-0.7015,-0.7019,-0.7006,-0.7018,-0.7018,-0.7012,-0.7009,-0.7014,-0.7015,-0.7015,-0.7012,-0.7001,-0.7001,-0.7001,-0.7001,0,-0.7106,-0.709,-0.7103,-0.7089,-0.7086,-0.7098,-0.7085,-0.7092,-0.7081,-0.7089,-0.709,-0.7073,-0.7076,-0.706,-0.706,-0.7052,-0.7069,-0.7061,-0.7071,-0.7069,-0.7086,-0.7085,-0.7147,-0.7154,-0.7092,-0.7093,-0.7093,0,-0.7138,-0.7148,-0.7135,-0.7137,-0.7133,-0.7137,-0.7137,-0.7118,-0.7119,-0.7111,-0.7119,-0.712,-0.712,-0.7125,-0.7112,-0.7112,-0.7104,-0.7126,-0.7104,-0.7108,-0.7104,-0.7104,-0.7104,-0.7131,-0.7132,-0.7132,-0.7133,0,-0.7196,-0.7187,-0.7189,-0.7187,-0.7188,-0.7186,-0.7182,-0.7185,-0.7163,-0.7166,-0.7168,-0.7168,-0.7167,-0.7168,-0.7164,-0.7158,-0.7142,-0.7139,-0.7143,-0.7149,-0.7154,-0.7151,-0.7084,-0.7138,-0.7138,-0.7137,-0.7137,-0.7137,-0.7241,-0.7248,-0.7239,-0.7241,-0.7236,-0.7232,-0.7238,-0.7227,-0.7228,-0.7226,-0.7214,-0.7218,-0.721,-0.7203,-0.7199,-0.7201,-0.7191,-0.7197,-0.7198,-0.72,-0.7203,-0.7153,-0.7201,-0.72,-0.72,-0.72,-0.72,0,-0.7298,-0.729,-0.7292,-0.7287,-0.7288,-0.7271,-0.7266,-0.7268,-0.7271,-0.7265,-0.7264,-0.7266,-0.7266,-0.7253,-0.7251,-0.7255,-0.7248,-0.7256,-0.7255,-0.7254,-0.7212,-0.7209,-0.7262,-0.7262,-0.7262,-0.7262,-0.7262,-0.7262,-0.7328,-0.7339,-0.7329,-0.7337,-0.7329,-0.7333,-0.7331,-0.7327,-0.7321,-0.7324,-0.7324,-0.7315,-0.7305,-0.7302,-0.7301,-0.7297,-0.7297,-0.7308,-0.7301,-0.7263,-0.7257,-0.7251,-0.7248,-0.7308,-0.7308,-0.7342,-0.7343,-0.7343]},{"header":{"parameterUnit":"m.s-1","parameterCategory":1,"la1":30.2991,"la2":30.254,"lo1":-89.0895,"lo2":-89.0444,"dy":0.0017,"dx":0.0017,"nx":28,"ny":28,"refTime":"2023-10-07T09:00:00:Z","depth":0,"parameterNumber":3,"parameterNumberName":"V-component_of_WINDS"},"data":[0,0,0,0,0,0,0,0,0,0,0,0,0,0,0,0,0,0,0,0,0,0,0,0,0,0,0,0,0,0,0,0,0,0,0,0,0,0,0,0,0,0,0,0,0,0,0,0,0,0,0,0,0,0,0,0,0,0,-7.3439,-7.344,0,-7.3546,-7.3548,-7.3549,-7.3455,-7.3451,-7.3447,-7.3443,-7.3546,-7.3553,-7.3559,0,0,0,0,0,0,0,0,0,0,0,0,0,-7.3144,-7.315,-7.3438,-7.344,-7.3441,-7.3546,-7.3548,-7.3549,-7.3455,-7.3451,-7.3446,-7.3441,-7.3544,-7.3552,-7.3559,0,0,0,0,0,0,0,0,0,0,0,0,0,-7.3264,-7.3152,-7.3438,-7.3407,-7.3405,-7.3546,-7.3548,-7.355,-7.3456,-7.345,-7.3445,-7.3439,-7.3542,-7.3551,-7.356,-7.3735,0,0,-7.359,-7.3594,0,0,0,0,0,0,0,0,-7.3257,-7.3274,-7.341,-7.341,-7.3408,-7.3481,-7.3481,-7.3611,-7.3458,-7.3437,-7.3443,-7.3436,-7.3529,-7.3539,-7.3572,-7.374,-7.3744,-7.359,-7.3596,-7.36,-7.3603,0,0,0,0,0,0,0,-7.3249,-7.3269,-7.3481,-7.3412,-7.3411,-7.3385,-7.3396,-7.3506,-7.3514,-7.3438,-7.3432,-7.3446,-7.3527,-7.3563,-7.3574,-7.3746,-7.359,-7.3599,-7.3604,-7.3608,-7.4061,-7.4067,0,0,0,0,0,0,-7.3245,-7.3263,-7.3477,-7.3484,-7.3317,-7.3395,-7.3407,-7.3463,-7.3512,-7.3514,-7.3451,-7.3441,-7.3549,-7.3563,-7.3577,-7.3784,-7.36,-7.3609,-7.3615,-7.4055,-7.4062,-7.4069,0,0,0,0,0,0,-7.3239,-7.3265,-7.3473,-7.3372,-7.3397,-7.3407,-7.347,-7.3469,-7.3504,-7.3522,-7.3522,-7.3487,-7.3545,-7.3563,-7.3697,-7.3786,-7.3613,-7.3622,-7.4047,-7.4057,-7.4066,-7.4199,0,0,0,0,0,0,-7.3231,-7.3263,-7.3331,-7.3374,-7.3402,-7.3594,-7.3476,-7.3475,-7.3522,-7.351,-7.3556,-7.3557,-7.3542,-7.3683,-7.3706,-7.3796,-7.3629,-7.4039,-7.4052,-7.4063,-7.4187,-7.4212,-7.4234,0,0,0,0,0,-7.3221,-7.3363,-7.3335,-7.3362,-7.3488,-7.3599,-7.3615,-7.3597,-7.353,-7.3597,-7.3608,-7.3556,-7.3773,-7.3697,-7.3723,-7.3817,-7.4033,-7.4048,-7.4062,-7.4176,-7.4207,-7.4233,0,0,0,0,0,0,-7.3328,-7.3368,-7.3338,-7.3499,-7.3547,-7.3583,-7.3667,-7.363,-7.3696,-7.3682,-7.3654,-7.3665,-7.3806,-7.3824,-7.374,-7.3987,-7.3892,-7.3912,-7.397,-7.4,-7.4023,-7.4015,-7.3637,0,0,0,0,0,-7.3371,-7.346,-7.3489,-7.3629,-7.3654,-7.3658,-7.3705,-7.3687,-7.3734,-7.3753,-7.3774,-7.382,-7.3898,-7.395,-7.4023,-7.4189,-7.4197,-7.4266,-7.429,-7.4309,-7.4326,-7.4414,-7.4445,-7.4116,-7.4116,-7.4115,0,0,-7.3459,-7.3492,-7.355,-7.3651,-7.3686,-7.3777,-7.3675,-7.3775,-7.3841,-7.3767,-7.3895,-7.3912,-7.3961,-7.4112,-7.4179,-7.4131,-7.4419,-7.4327,-7.4342,-7.4349,-7.4432,-7.4463,-7.4491,-7.4125,-7.4124,-7.4122,0,0,-7.3667,-7.3702,-7.3822,-7.3859,-7.3914,-7.3915,-7.3944,-7.3987,-7.3996,-7.4124,-7.4071,-7.4148,-7.4283,-7.432,-7.4357,-7.458,-7.4533,-7.4604,-7.4726,-7.4812,-7.4838,-7.4861,-7.4939,-7.4968,-7.4621,-7.4621,-7.4622,0,-7.3769,-7.3906,-7.3887,-7.3992,-7.4037,-7.3978,-7.4097,-7.4134,-7.4209,-7.424,-7.4187,-7.4356,-7.4385,-7.4543,-7.4597,-7.4629,-7.4659,-7.4598,-7.4836,-7.4859,-7.488,-7.4954,-7.4984,-7.463,-7.4629,-7.4628,-7.4627,0,-7.4029,-7.4124,-7.4214,-7.4291,-7.4346,-7.4458,-7.4454,-7.4512,-7.4489,-7.4495,-7.4626,-7.4659,-7.4737,-7.4773,-7.4751,-7.4928,-7.4897,-7.4841,-7.4744,-7.492,-7.4989,-7.5017,-7.4641,-7.4638,-7.4636,-7.4634,0,0,-7.4306,-7.4372,-7.4405,-7.4439,-7.4496,-7.4568,-7.4676,-7.4755,-7.4805,-7.4859,-7.4947,-7.5064,-7.5012,-7.5054,-7.5036,-7.5112,-7.5285,-7.5046,-7.5046,-7.5088,-7.548,-7.5522,-7.5555,-7.5255,-7.526,-7.5265,-7.5476,0,-7.4515,-7.4706,-7.4692,-7.4871,-7.4958,-7.4903,-7.4997,-7.5041,-7.5049,-7.5123,-7.513,-7.5214,-7.514,-7.5165,-7.5238,-7.5248,-7.5363,-7.5233,-7.5335,-7.5339,-7.5324,-7.5591,-7.5636,-7.5833,-7.5503,-7.5507,-7.5511,0,-7.4784,-7.485,-7.5039,-7.5083,-7.5119,-7.5204,-7.5275,-7.5347,-7.5394,-7.5395,-7.5442,-7.5411,-7.5518,-7.542,-7.5565,-7.5477,-7.5518,-7.553,-7.5537,-7.5544,-7.5435,-7.5605,-7.5896,-7.5925,-7.5553,-7.555,-7.5547,0,-7.4966,-7.5102,-7.5232,-7.5263,-7.5318,-7.5379,-7.5403,-7.5446,-7.5494,-7.5556,-7.5586,-7.5659,-7.5698,-7.5754,-7.5742,-7.5672,-7.589,-7.5791,-7.5892,-7.5892,-7.5939,-7.5936,-7.6239,-7.5968,-7.5967,-7.5967,-7.5966,0,-7.5201,-7.5318,-7.5315,-7.5395,-7.5524,-7.5506,-7.5634,-7.5651,-7.5689,-7.577,-7.5726,-7.5802,-7.5783,-7.5857,-7.5849,-7.597,-7.5988,-7.599,-7.5986,-7.5993,-7.5993,-7.6019,-7.6004,-7.5975,-7.5973,-7.5971,-7.597,0,-7.5425,-7.5428,-7.5567,-7.5608,-7.5621,-7.5714,-7.5747,-7.5822,-7.5827,-7.593,-7.5953,-7.5961,-7.6046,-7.6041,-7.6137,-7.6131,-7.628,-7.626,-7.6265,-7.626,-7.6361,-7.6351,-7.669,-7.6733,-7.6435,-7.6438,-7.644,0,-7.5574,-7.5663,-7.5715,-7.5767,-7.5797,-7.5881,-7.5931,-7.5917,-7.597,-7.6031,-7.6098,-7.618,-7.6245,-7.6384,-7.6397,-7.647,-7.6451,-7.6565,-7.6461,-7.6466,-7.6451,-7.6446,-7.6454,-7.6585,-7.6588,-7.6591,-7.6593,0,-7.5838,-7.5835,-7.591,-7.5987,-7.6048,-7.6107,-7.616,-7.6204,-7.6195,-7.6257,-7.6345,-7.6396,-7.6496,-7.6577,-7.6647,-7.6669,-7.663,-7.6626,-7.6653,-7.6661,-7.6659,-7.666,-7.6319,-7.6618,-7.6615,-7.6613,-7.6612,-7.6611,-7.6028,-7.6105,-7.6153,-7.6238,-7.6277,-7.6329,-7.6401,-7.6416,-7.6491,-7.6572,-7.6558,-7.6658,-7.6702,-7.6792,-7.6821,-7.6897,-7.6856,-7.6895,-7.6905,-7.6914,-7.6926,-7.6649,-7.691,-7.6909,-7.6908,-7.6908,-7.6907,0,-7.6288,-7.6317,-7.6396,-7.6473,-7.654,-7.65,-7.6556,-7.6614,-7.6703,-7.6749,-7.6814,-7.6916,-7.6995,-7.7014,-7.709,-7.7146,-7.713,-7.7166,-7.7161,-7.7167,-7.6958,-7.6927,-7.7179,-7.7179,-7.7178,-7.7178,-7.7178,-7.7178,-7.6432,-7.6559,-7.6563,-7.6708,-7.6735,-7.6835,-7.687,-7.6916,-7.6953,-7.7069,-7.7136,-7.7149,-7.7184,-7.7262,-7.7332,-7.7335,-7.7364,-7.7408,-7.7404,-7.7209,-7.7182,-7.7156,-7.7126,-7.7415,-7.7415,-7.7606,-7.7608,-7.7609]}]]